#timestamp,LO_Frequency,Hit,StdDev 
1583965055.1,286047000.2,P
1583965075.8,286047000.5,P
1583965095.7,286046998.5,P
1583965115.5,286046998.8,N
1583965135.4,286046999.6,N
1583965155.2,286046996.6,Y
1583965175.0,286046999.5,P
1583965175.9,286046999.5,P
1583965195.8,286046998.9,P
1583965215.6,286047000.5,N
1583965235.5,286046999.7,N
1583965255.3,286046999.8,N
1583965275.1,286047000.1,N
1583965295.9,286047000.0,N
1583965315.7,286047000.2,N
1583965335.6,286047002.2,Y
1583965355.4,286047001.3,P
1583965375.2,286047002.7,P
1583965395.1,286046999.8,N
1583965396.0,286046999.8,N
1583965415.8,286046999.9,N
1583965435.6,286046998.3,N
1583965455.5,286046996.5,N
1583965475.3,286046998.6,N
1583965495.2,286046998.6,N
1583965515.9,286047002.4,N
1583965535.7,286047002.8,N
1583965555.6,286047004.4,N
1583965575.4,286047002.5,N
1583965595.3,286047001.9,N
1583965615.1,286047002.1,N
1583965616.0,286047002.1,N
1583965635.8,286047002.6,N
1583965655.7,286047000.4,N
1583965675.5,286047000.3,N
1583965695.3,286047000.2,N
1583965715.2,286047001.6,N
1583965735.0,286046999.8,N
1583965735.9,286046999.8,N
1583965755.8,286046999.7,N
1583965775.6,286047002.8,N
1583965795.4,286047002.7,N
1583965815.3,286047001.0,N
1583965835.1,286047002.4,N
1583965855.9,286047004.3,N
1583965875.7,286047002.6,N
1583965895.5,286047004.1,N
1583965915.4,286047004.3,N
1583965935.2,286047001.5,N
1583965955.0,286047004.4,N
1583965955.9,286047004.4,N
1583965975.8,286047001.6,N
1583965995.6,286047001.4,N
1583966015.5,286047004.3,N
1583966035.3,286047004.4,N
1583966055.1,286047004.4,N
1583966075.9,286047001.6,N
1583966095.7,286047002.8,N
1583966115.6,286047001.5,N
1583966135.4,286047002.5,N
1583966155.2,286046999.9,N
1583966175.1,286046999.9,N
1583966176.0,286046999.9,N
1583966195.8,286047002.6,N
1583966215.6,286047002.6,N
1583966235.5,286047004.4,N
1583966255.3,286047002.8,N
1583966275.2,286046999.9,N
1583966295.9,286047000.6,N
1583966315.7,286047002.3,N
1583966335.6,286047002.6,N
1583966355.4,286047002.6,N
1583966375.2,286047002.7,N
1583966395.1,286046999.9,N
1583966396.0,286046999.9,N
1583966415.8,286046998.1,N
1583966435.7,286047000.8,N
1583966455.5,286047002.4,N
1583966475.3,286047002.5,N
1583966495.2,286046999.7,N
1583966515.0,286047002.6,N
1583966515.9,286047002.6,N
1583966535.8,286047001.6,N
1583966555.6,286047002.1,N
1583966575.4,286046999.9,N
1583966595.3,286047000.5,N
1583966615.1,286047000.4,N
1583966635.8,286047000.0,N
1583966655.7,286046999.7,N
1583966675.5,286047000.5,N
1583966695.4,286046998.1,N
1583966715.2,286046998.1,N
1583966735.0,286046999.4,N
1583966735.9,286046999.4,N
1583966755.8,286046998.3,N
1583966775.6,286046999.4,N
1583966795.5,286046999.0,N
1583966815.3,286046999.4,N
1583966835.1,286046999.3,N
1583966855.9,286047000.9,N
1583966875.7,286046998.4,N
1583966895.5,286047001.2,N
1583966915.4,286047000.0,N
1583966935.2,286046998.1,N
1583966955.1,286047000.2,N
1583966956.0,286047000.2,N
1583966975.8,286046998.2,N
1583966995.6,286046998.1,N
1583967015.5,286046998.1,N
1583967035.3,286046998.5,N
1583967055.2,286047001.0,N
1583967075.9,286046998.1,N
1583967095.7,286047000.5,N
1583967115.6,286047001.2,N
1583967135.4,286046999.1,N
1583967155.2,286046998.9,N
1583967175.1,286046999.4,N
1583967176.0,286046999.4,N
1583967195.8,286046999.1,N
1583967215.7,286046998.8,N
1583967235.5,286046998.8,N
1583967255.3,286046999.6,N
1583967275.2,286046998.4,N
1583967295.0,286046999.2,N
1583967295.9,286046999.2,N
1583967315.8,286046999.6,N
1583967335.6,286046998.9,N
1583967355.4,286046996.5,Y
1583967375.3,286046999.2,P
1583967395.1,286046998.1,P
1583967415.9,286047000.0,N
1583967435.7,286047000.4,N
1583967455.5,286046999.9,N
1583967475.4,286047000.4,N
1583967495.2,286047000.4,N
1583967515.0,286047000.4,N
1583967515.9,286047000.4,N
1583967535.8,286047000.7,N
1583967555.6,286046998.5,N
1583967575.5,286047002.4,N
1583967595.3,286047001.5,N
